VTK601 UHMM-UHPP

Flight info

Callsign VTK601
Flight time 1h 16m
Altitude 37000
Route OSKET5E OSKET A812 BAKEN BAKEN5N
Aircraft A319/M-SDE3FGHIRWY/LB1

Departure

Time 2026-04-24 15:38
Airport Sokol Airport (UHMM)

Arrival

Time 2026-04-24 16:54
Airport Yelizovo Airport (UHPP)
Time Latitude Longitude Altitude Speed Heading
2026-04-24 15:36 59.91028 150.74511 585 ft 34 kts 94°
2026-04-24 15:37 59.91025 150.74881 585 ft 16 kts 75°
2026-04-24 15:37 59.91076 150.75045 585 ft 14 kts 114°
2026-04-24 15:37 59.91016 150.74987 585 ft 13 kts 271°
2026-04-24 15:37 59.91024 150.74797 585 ft 15 kts 273°
2026-04-24 15:38 59.91029 150.74548 585 ft 34 kts 272°
2026-04-24 15:38 59.91058 150.73496 583 ft 114 kts 273°
2026-04-24 15:38 59.91112 150.71494 657 ft 164 kts 272°
2026-04-24 15:38 59.91166 150.69253 1381 ft 161 kts 272°
2026-04-24 15:39 59.91220 150.67018 2174 ft 162 kts 275°
2026-04-24 15:39 59.91280 150.64686 2744 ft 179 kts 277°
2026-04-24 15:39 59.91354 150.62052 3146 ft 202 kts 277°
2026-04-24 15:39 59.91436 150.59119 3603 ft 222 kts 277°
2026-04-24 15:40 59.91524 150.55876 4099 ft 246 kts 278°
2026-04-24 15:40 59.91620 150.52332 4798 ft 264 kts 278°
2026-04-24 15:40 59.91717 150.48622 5740 ft 272 kts 278°
2026-04-24 15:40 59.91606 150.44820 6720 ft 284 kts 256°
2026-04-24 15:41 59.90531 150.41483 7679 ft 294 kts 221°
2026-04-24 15:41 59.88698 150.39746 8701 ft 297 kts 188°
2026-04-24 15:41 59.86679 150.40158 9725 ft 296 kts 155°
2026-04-24 15:41 59.85021 150.42566 10437 ft 303 kts 127°
2026-04-24 15:42 59.83769 150.46119 10804 ft 325 kts 119°
2026-04-24 15:42 59.82518 150.50045 11089 ft 348 kts 118°
2026-04-24 15:42 59.81195 150.54259 11328 ft 370 kts 118°
2026-04-24 15:42 59.79735 150.58582 11886 ft 383 kts 124°
2026-04-24 15:43 59.78000 150.62665 12577 ft 391 kts 129°
2026-04-24 15:43 59.76084 150.66575 13314 ft 398 kts 132°
2026-04-24 15:43 59.74075 150.70405 14013 ft 404 kts 133°
2026-04-24 15:43 59.72046 150.74209 14640 ft 409 kts 133°
2026-04-24 15:44 59.69978 150.78125 15326 ft 413 kts 132°
2026-04-24 15:44 59.67913 150.82117 16007 ft 417 kts 131°
2026-04-24 15:44 59.65852 150.86192 16649 ft 420 kts 130°
2026-04-24 15:44 59.63791 150.90335 17270 ft 424 kts 130°
2026-04-24 15:45 59.61717 150.94517 17872 ft 428 kts 130°
2026-04-24 15:45 59.59624 150.98731 18465 ft 432 kts 130°
2026-04-24 15:45 59.57515 151.02971 18998 ft 434 kts 130°
2026-04-24 15:45 59.55389 151.07229 19528 ft 436 kts 130°
2026-04-24 15:46 59.53247 151.11491 20044 ft 439 kts 130°
2026-04-24 15:46 59.51089 151.15762 20536 ft 442 kts 130°
2026-04-24 15:46 59.48910 151.20055 21006 ft 444 kts 130°
2026-04-24 15:46 59.46720 151.24364 21478 ft 447 kts 130°
2026-04-24 15:47 59.44510 151.28697 21953 ft 450 kts 131°
2026-04-24 15:47 59.42287 151.33044 22422 ft 452 kts 131°
2026-04-24 15:47 59.40051 151.37413 22864 ft 455 kts 131°
2026-04-24 15:47 59.37802 151.41811 23306 ft 458 kts 131°
2026-04-24 15:48 59.35539 151.46221 23721 ft 461 kts 131°
2026-04-24 15:48 59.33252 151.50678 24017 ft 465 kts 131°
2026-04-24 15:48 59.30819 151.54907 24339 ft 472 kts 139°
2026-04-24 15:48 59.28106 151.58586 24671 ft 476 kts 142°
2026-04-24 15:49 59.25359 151.62223 25004 ft 478 kts 142°
2026-04-24 15:49 59.22603 151.65888 25344 ft 480 kts 142°
2026-04-24 15:49 59.19838 151.69570 25646 ft 482 kts 142°
2026-04-24 15:49 59.17060 151.73264 25952 ft 485 kts 142°
2026-04-24 15:50 59.14267 151.76965 26261 ft 487 kts 143°
2026-04-24 15:50 59.11450 151.80683 26565 ft 489 kts 143°
2026-04-24 15:50 59.08635 151.84386 26970 ft 488 kts 143°
2026-04-24 15:50 59.05825 151.88080 27418 ft 487 kts 143°
2026-04-24 15:51 59.03026 151.91776 27862 ft 486 kts 143°
2026-04-24 15:51 59.00234 151.95475 28292 ft 486 kts 143°
2026-04-24 15:51 58.97446 151.99171 28731 ft 485 kts 143°
2026-04-24 15:51 58.94662 152.02860 29214 ft 484 kts 143°
2026-04-24 15:52 58.91915 152.06484 29686 ft 483 kts 143°
2026-04-24 15:52 58.89101 152.10181 30193 ft 483 kts 143°
2026-04-24 15:52 58.86319 152.13821 30539 ft 483 kts 143°
2026-04-24 15:52 58.83571 152.17404 30869 ft 483 kts 143°
2026-04-24 15:53 58.80780 152.21033 31206 ft 484 kts 143°
2026-04-24 15:53 58.77992 152.24650 31532 ft 484 kts 143°
2026-04-24 15:53 58.75198 152.28273 31869 ft 484 kts 143°
2026-04-24 15:53 58.72396 152.31899 32212 ft 485 kts 143°
2026-04-24 15:54 58.69597 152.35517 32545 ft 485 kts 143°
2026-04-24 15:54 58.66797 152.39131 32873 ft 485 kts 143°
2026-04-24 15:54 58.63992 152.42740 33215 ft 485 kts 143°
2026-04-24 15:54 58.61184 152.46338 33606 ft 484 kts 143°
2026-04-24 15:55 58.58384 152.49906 33962 ft 483 kts 143°
2026-04-24 15:55 58.55588 152.53485 34262 ft 483 kts 143°
2026-04-24 15:55 58.52829 152.57145 34543 ft 482 kts 142°
2026-04-24 15:55 58.50103 152.60864 34823 ft 482 kts 141°
2026-04-24 15:56 58.47390 152.64622 35104 ft 481 kts 141°
2026-04-24 15:56 58.44684 152.68377 35372 ft 481 kts 141°
2026-04-24 15:56 58.41972 152.72111 35625 ft 481 kts 142°
2026-04-24 15:56 58.39246 152.75815 35882 ft 480 kts 142°
2026-04-24 15:57 58.36518 152.79484 36159 ft 480 kts 143°
2026-04-24 15:57 58.33789 152.83135 36405 ft 479 kts 143°
2026-04-24 15:57 58.31982 152.85548 36555 ft 479 kts 143°
2026-04-24 15:57 58.28369 152.90368 36848 ft 479 kts 143°
2026-04-24 15:58 58.25638 152.94015 37009 ft 480 kts 143°
2026-04-24 15:58 58.22904 152.97666 37050 ft 481 kts 143°
2026-04-24 15:58 58.17435 153.04961 37046 ft 481 kts 143°
2026-04-24 15:59 58.11883 153.12034 37043 ft 481 kts 145°
2026-04-24 15:59 58.06271 153.18916 37043 ft 481 kts 145°
2026-04-24 16:00 58.00663 153.25819 37045 ft 481 kts 145°
2026-04-24 16:00 57.95067 153.32754 37046 ft 481 kts 145°
2026-04-24 16:01 57.89474 153.39680 37066 ft 481 kts 145°
2026-04-24 16:01 57.83912 153.46525 37051 ft 481 kts 145°
2026-04-24 16:02 57.78304 153.53407 37050 ft 481 kts 145°
2026-04-24 16:02 57.72699 153.60285 37050 ft 482 kts 145°
2026-04-24 16:03 57.67084 153.67145 37061 ft 482 kts 145°
2026-04-24 16:03 57.61455 153.74002 37056 ft 483 kts 145°
2026-04-24 16:04 57.55826 153.80812 37057 ft 482 kts 145°
2026-04-24 16:04 57.50196 153.87619 37055 ft 482 kts 145°
2026-04-24 16:05 57.41791 153.97724 37056 ft 482 kts 145°
2026-04-24 16:06 57.33343 154.07841 37044 ft 482 kts 145°
2026-04-24 16:07 57.24881 154.17921 37041 ft 483 kts 146°
2026-04-24 16:07 57.16381 154.27925 37040 ft 484 kts 146°
2026-04-24 16:08 57.08799 154.36697 37041 ft 484 kts 146°
2026-04-24 16:09 57.00238 154.46564 37033 ft 485 kts 146°
2026-04-24 16:09 56.94519 154.53137 37031 ft 485 kts 146°
2026-04-24 16:11 56.80224 154.69450 37024 ft 485 kts 147°
2026-04-24 16:11 56.74484 154.75951 37020 ft 486 kts 147°
2026-04-24 16:12 56.65863 154.85664 37016 ft 486 kts 147°
2026-04-24 16:13 56.57244 154.95346 37018 ft 486 kts 147°
2026-04-24 16:14 56.45730 155.08192 37017 ft 486 kts 147°
2026-04-24 16:14 56.37077 155.17779 37014 ft 487 kts 147°
2026-04-24 16:15 56.28409 155.27322 37015 ft 487 kts 147°
2026-04-24 16:16 56.19728 155.36831 37017 ft 487 kts 147°
2026-04-24 16:17 56.05318 155.52805 37013 ft 487 kts 147°
2026-04-24 16:18 55.93797 155.65553 37011 ft 487 kts 147°
2026-04-24 16:19 55.85127 155.75050 36996 ft 487 kts 147°
2026-04-24 16:20 55.76489 155.84440 36989 ft 488 kts 148°
2026-04-24 16:20 55.67773 155.93889 36984 ft 487 kts 147°
2026-04-24 16:21 55.59142 156.03228 36971 ft 486 kts 147°
2026-04-24 16:22 55.53361 156.09453 36962 ft 486 kts 148°
2026-04-24 16:22 55.44665 156.18692 36955 ft 486 kts 148°
2026-04-24 16:23 55.38876 156.24851 36954 ft 486 kts 148°
2026-04-24 16:24 55.30197 156.34051 36947 ft 486 kts 148°
2026-04-24 16:24 55.24393 156.40129 36934 ft 486 kts 148°
2026-04-24 16:25 55.18594 156.46195 36924 ft 486 kts 148°
2026-04-24 16:25 55.12792 156.52248 36925 ft 486 kts 149°
2026-04-24 16:26 55.04078 156.61312 36912 ft 486 kts 148°
2026-04-24 16:27 54.95351 156.70353 36899 ft 487 kts 149°
2026-04-24 16:27 54.89527 156.76352 36893 ft 487 kts 149°
2026-04-24 16:28 54.83697 156.82349 36890 ft 487 kts 149°
2026-04-24 16:28 54.74943 156.91302 36893 ft 487 kts 149°
2026-04-24 16:29 54.69107 156.97243 36889 ft 487 kts 149°
2026-04-24 16:30 54.57415 157.09069 36890 ft 487 kts 149°
2026-04-24 16:30 54.51564 157.14971 36890 ft 487 kts 149°
2026-04-24 16:31 54.45715 157.20881 36896 ft 488 kts 149°
2026-04-24 16:31 54.39850 157.26757 36899 ft 488 kts 149°
2026-04-24 16:32 54.34016 157.32554 36900 ft 488 kts 150°
2026-04-24 16:32 54.28105 157.38423 36901 ft 488 kts 149°
2026-04-24 16:33 54.22273 157.44206 36898 ft 488 kts 149°
2026-04-24 16:33 54.16404 157.50012 36894 ft 488 kts 150°
2026-04-24 16:34 54.10531 157.55799 36903 ft 488 kts 150°
2026-04-24 16:34 54.04657 157.61588 36904 ft 488 kts 149°
2026-04-24 16:35 53.98786 157.67380 36843 ft 486 kts 149°
2026-04-24 16:35 53.95884 157.70240 36571 ft 478 kts 149°
2026-04-24 16:35 53.93028 157.73052 36073 ft 470 kts 150°
2026-04-24 16:36 53.90215 157.75814 35300 ft 465 kts 150°
2026-04-24 16:36 53.87432 157.78541 34581 ft 459 kts 150°
2026-04-24 16:36 53.84681 157.81232 33884 ft 454 kts 150°
2026-04-24 16:36 53.81962 157.83882 33074 ft 448 kts 150°
2026-04-24 16:37 53.79276 157.86496 32295 ft 442 kts 149°
2026-04-24 16:37 53.76623 157.89069 31545 ft 437 kts 149°
2026-04-24 16:37 53.74844 157.90788 31047 ft 434 kts 149°
2026-04-24 16:37 53.71395 157.94094 30087 ft 428 kts 149°
2026-04-24 16:38 53.68818 157.96547 29287 ft 423 kts 149°
2026-04-24 16:38 53.66287 157.99026 28495 ft 418 kts 144°
2026-04-24 16:38 53.63998 158.01968 27733 ft 411 kts 138°
2026-04-24 16:38 53.61809 158.05007 27025 ft 406 kts 137°
2026-04-24 16:39 53.59632 158.08020 26341 ft 402 kts 137°
2026-04-24 16:39 53.57479 158.10982 25667 ft 397 kts 137°
2026-04-24 16:39 53.55347 158.13903 24991 ft 393 kts 137°
2026-04-24 16:39 53.53242 158.16785 24321 ft 389 kts 137°
2026-04-24 16:40 53.51155 158.19640 23670 ft 384 kts 137°
2026-04-24 16:40 53.49093 158.22458 22962 ft 380 kts 137°
2026-04-24 16:40 53.47059 158.25236 22231 ft 375 kts 137°
2026-04-24 16:40 53.45047 158.27983 21519 ft 371 kts 137°
2026-04-24 16:41 53.43060 158.30694 20831 ft 366 kts 137°
2026-04-24 16:41 53.41109 158.33353 19984 ft 367 kts 137°
2026-04-24 16:41 53.39119 158.36063 19056 ft 371 kts 137°
2026-04-24 16:41 53.37111 158.38799 18149 ft 373 kts 137°
2026-04-24 16:42 53.35095 158.41545 17125 ft 374 kts 138°
2026-04-24 16:42 53.33069 158.44294 16122 ft 375 kts 139°
2026-04-24 16:42 53.31037 158.47042 15188 ft 374 kts 139°
2026-04-24 16:42 53.29062 158.49712 14929 ft 354 kts 140°
2026-04-24 16:43 53.27206 158.52218 14787 ft 333 kts 140°
2026-04-24 16:43 53.25443 158.54599 14409 ft 321 kts 140°
2026-04-24 16:43 53.23721 158.56922 13896 ft 316 kts 140°
2026-04-24 16:43 53.22018 158.59210 13316 ft 312 kts 140°
2026-04-24 16:44 53.20312 158.61500 12458 ft 315 kts 141°
2026-04-24 16:44 53.18621 158.63761 11964 ft 307 kts 141°
2026-04-24 16:44 53.16985 158.65957 11527 ft 297 kts 141°
2026-04-24 16:44 53.15404 158.68082 11102 ft 287 kts 141°
2026-04-24 16:45 53.13769 158.69895 10695 ft 278 kts 154°
2026-04-24 16:45 53.12018 158.71130 10307 ft 270 kts 159°
2026-04-24 16:45 53.10330 158.72277 9933 ft 261 kts 158°
2026-04-24 16:45 53.08676 158.73416 9545 ft 253 kts 158°
2026-04-24 16:46 53.07077 158.74515 9174 ft 244 kts 156°
2026-04-24 16:46 53.05531 158.75565 8822 ft 235 kts 156°
2026-04-24 16:46 53.04051 158.76572 8566 ft 224 kts 156°
2026-04-24 16:46 53.02615 158.77554 8320 ft 222 kts 155°
2026-04-24 16:47 53.01195 158.78520 8023 ft 219 kts 155°
2026-04-24 16:47 52.99785 158.79477 7709 ft 219 kts 156°
2026-04-24 16:47 52.98300 158.79941 7395 ft 220 kts 181°
2026-04-24 16:47 52.96827 158.79231 7063 ft 225 kts 207°
2026-04-24 16:48 52.95688 158.77399 6607 ft 235 kts 239°
2026-04-24 16:48 52.95032 158.74900 6152 ft 239 kts 248°
2026-04-24 16:48 52.94400 158.72326 5676 ft 243 kts 247°
2026-04-24 16:48 52.93753 158.69709 5200 ft 247 kts 247°
2026-04-24 16:49 52.93205 158.67011 4797 ft 247 kts 262°
2026-04-24 16:49 52.93297 158.64252 4657 ft 237 kts 287°
2026-04-24 16:49 52.93992 158.61882 4492 ft 226 kts 310°
2026-04-24 16:49 52.95116 158.60184 4262 ft 216 kts 332°
2026-04-24 16:50 52.96002 158.59477 4100 ft 211 kts 341°
2026-04-24 16:50 52.97833 158.58231 3738 ft 214 kts 341°
2026-04-24 16:50 52.99200 158.57294 3465 ft 212 kts 341°
2026-04-24 16:50 53.00567 158.56354 3199 ft 212 kts 341°
2026-04-24 16:51 53.01932 158.55417 2912 ft 211 kts 341°
2026-04-24 16:51 53.03278 158.54490 2648 ft 208 kts 341°
2026-04-24 16:51 53.04615 158.53568 2381 ft 208 kts 341°
2026-04-24 16:51 53.05952 158.52649 2099 ft 207 kts 339°
2026-04-24 16:52 53.07273 158.51741 1790 ft 201 kts 339°
2026-04-24 16:52 53.08521 158.50880 1547 ft 187 kts 338°
2026-04-24 16:52 53.09676 158.50082 1277 ft 176 kts 339°
2026-04-24 16:52 53.10769 158.49332 1071 ft 163 kts 338°
2026-04-24 16:53 53.11769 158.48642 891 ft 145 kts 338°
2026-04-24 16:53 53.12644 158.48036 723 ft 130 kts 338°
2026-04-24 16:53 53.13456 158.47472 577 ft 125 kts 339°
2026-04-24 16:53 53.14250 158.46924 419 ft 123 kts 338°
2026-04-24 16:54 53.15039 158.46379 288 ft 123 kts 338°
2026-04-24 16:54 53.15827 158.45827 137 ft 120 kts 338°
2026-04-24 16:54 53.16495 158.45383 123 ft 85 kts 338°
2026-04-24 16:54 53.16913 158.45093 122 ft 48 kts 336°
2026-04-24 16:55 53.17164 158.44903 125 ft 35 kts 336°